Regional Weather Roundup
Issued by NWS

Home | Current Version | Previous Version | Text Only | Print | Product List | Glossary Off
Versions: 1 2 3 4 5 6 7 8 9 10 11 12 13 14 15 16 17 18 19 20 21 22 23 24 25 26 27 28 29 30 31 32 33 34 35 36 37 38 39 40 41 42 43 44 45 46 47 48 49 50

000
ASUS43 KIND 302059
RWRIN

WEATHER ROUNDUP FOR INDIANA
NATIONAL WEATHER SERVICE INDIANAPOLIS IN
500 PM EDT SAT APR 30 2016

NOTE: "FAIR" INDICATES FEW OR NO CLOUDS BELOW 12,000 FEET WITH NO
SIGNIFICANT WEATHER AND/OR OBSTRUCTIONS TO VISIBILITY.

* - STATION DOES NOT REPORT WEATHER SUCH AS PRECIPITATION OR FOG.

+ - STATION NOT QUALITY CONTROLLED BY THE NATIONAL WEATHER SERVICE.
    USE DATA WITH CAUTION...ESPECIALLY DEWPOINT AND RELATIVE
    HUMIDITY OBSERVATIONS.

INZ001>003-010>013-019-020-302200-
NORTHWEST INDIANA

CITY           SKY/WX    TMP DP  RH WIND       PRES   REMARKS
GARY /AIRPORT/ CLOUDY    50  50 100 E7        29.92F
RENSSELAER +   LGT RAIN  50  48  93 E16G22    29.86F
VALPARAISO       N/A     46  45  93 E16       29.90F FOG

$$

LMZ046-743>745-302200-
SOUTHERN LAKE MICHIGAN

STATION/POSITION TIME  TEMP    WIND        PRES    WAVE
                       AIR SEA DIR/SP/G            HT
                 (UTC) (F)     (DEG/KT/KT) (MB)    (FT)
BURNS HARBOR     2006   48     100/ 12/ 21 1013.9F
MICHIGAN CITY    2000   48      50/ 12/ 13   N/A

$$

INZ004-005-014>016-021>024-302200-
NORTH CENTRAL INDIANA

CITY           SKY/WX    TMP DP  RH WIND       PRES   REMARKS
ELKHART        LGT RAIN  48  48 100 E16       29.95F
GOSHEN         LGT RAIN  49  46  90 E12       29.95F FOG
SOUTH BEND     LGT RAIN  48  46  93 E15G23    29.94F FOG

$$

INZ006>009-017-018-025>027-302200-
NORTHEAST INDIANA

CITY           SKY/WX    TMP DP  RH WIND       PRES   REMARKS
ANGOLA *+      CLOUDY    46  37  71 E18       29.98F
FORT WAYNE     RAIN      50  47  89 E16       29.95F FOG

$$

INZ028-029-035-036-043>045-051>053-302200-
WEST CENTRAL INDIANA

CITY           SKY/WX    TMP DP  RH WIND       PRES   REMARKS
CRAWFORDSVL +  CLOUDY    56  56 100 SE14      29.83F
GREENCASTLE +  CLOUDY    55  55 100 SE12      29.84F
LAFAYETTE      CLOUDY    53  52  96 E16       29.85S
TERRE HAUTE    CLOUDY    63  59  87 SE14      29.81F

$$

INZ030>032-037>040-046>048-054>057-064-065-302200-
CENTRAL INDIANA

CITY           SKY/WX    TMP DP  RH WIND       PRES   REMARKS
COLUMBUS       LGT RAIN  59  59 100 SE9       29.89F
INDIANAPOLIS   CLOUDY    57  55  93 E12       29.85F FOG
-EAGLE CREEK   CLOUDY    56  54  93 E9        29.86F
KOKOMO *+      CLOUDY    52  46  82 E17       29.88F
SHELBYVILLE    CLOUDY    61  56  83 SE9       29.87F

$$

INZ033-034-041-042-049-050-058-059-302200-
EAST CENTRAL INDIANA

CITY           SKY/WX    TMP DP  RH WIND       PRES   REMARKS
MUNCIE         LGT RAIN  54  51  90 E14       29.92F FOG

$$

INZ060-061-067>069-081>083-085>088-302200-
SOUTHWEST INDIANA

CITY           SKY/WX    TMP DP  RH WIND       PRES   REMARKS
EVANSVILLE     CLOUDY    67  63  87 SE10      29.83F
HUNTINGBURG *+ CLOUDY    64  61  88 SE9       29.86F

$$

INZ062-063-066-070>080-084-089>092-302200-
SOUTH CENTRAL AND SOUTHEAST INDIANA

CITY           SKY/WX    TMP DP  RH WIND       PRES   REMARKS
BLOOMINGTON    LGT RAIN  60  58  92 SE10      29.86F
MADISON *+     CLOUDY    63  59  88 S3        29.93R
SEYMOUR +      DRIZZLE   63  59  88 CALM      29.90R

$$





USA.gov is the U.S. government's official web portal to all federal, state and local government web resources and services.